Time,TemperatureF,DewpointF,PressureIn,WindDirection,WindDirectionDegrees,WindSpeedMPH,WindSpeedGustMPH,Humidity,HourlyPrecipIn,Conditions,Clouds,dailyrainin,SoftwareType,DateUTC
2013-01-21 00:02:00,23.7,12.9,29.29,ENE,68,1.0,4.0,63,0.00,,,0.00,meteohub,2013-01-21 05:02:00,
2013-01-21 00:03:00,23.7,12.9,29.29,ENE,68,2.0,4.0,63,0.00,,,0.00,meteohub,2013-01-21 05:03:00,
2013-01-21 00:05:00,23.7,11.1,29.29,SW,232,0.0,4.0,58,0.00,,,0.00,meteohub,2013-01-21 05:05:00,
2013-01-21 00:07:00,23.7,11.5,29.29,SW,232,1.0,6.0,59,0.00,,,0.00,meteohub,2013-01-21 05:07:00,
2013-01-21 00:12:00,23.7,11.8,29.29,SSE,154,1.0,6.0,60,0.00,,,0.00,meteohub,2013-01-21 05:12:00,
2013-01-21 00:17:00,23.5,11.3,29.29,SE,145,0.0,7.0,59,0.00,,,0.00,meteohub,2013-01-21 05:17:00,
2013-01-21 00:22:00,23.4,11.1,29.29,NNW,328,0.0,7.0,59,0.00,,,0.00,meteohub,2013-01-21 05:22:00,
2013-01-21 00:27:00,23.4,11.1,29.28,SSW,198,0.0,4.0,59,0.00,,,0.00,meteohub,2013-01-21 05:27:00,
2013-01-21 00:32:00,23.2,11.3,29.28,NW,326,0.0,4.0,60,0.00,,,0.00,meteohub,2013-01-21 05:32:00,
2013-01-21 00:38:00,23.0,11.1,29.28,SSW,200,0.0,4.0,60,0.00,,,0.00,meteohub,2013-01-21 05:38:00,
2013-01-21 00:43:00,22.8,9.9,29.28,SSW,200,3.0,3.0,57,0.00,,,0.00,meteohub,2013-01-21 05:43:00,
2013-01-21 00:48:00,22.8,9.9,29.29,SW,229,0.0,3.0,57,0.00,,,0.00,meteohub,2013-01-21 05:48:00,
2013-01-21 00:53:00,22.8,10.6,29.29,South,173,1.0,3.0,59,0.00,,,0.00,meteohub,2013-01-21 05:53:00,
2013-01-21 00:59:00,22.6,9.7,29.29,ESE,104,1.0,3.0,57,0.00,,,0.00,meteohub,2013-01-21 05:59:00,
2013-01-21 01:04:00,22.6,10.0,29.29,SSW,204,0.0,3.0,58,0.00,,,0.00,meteohub,2013-01-21 06:04:00,
2013-01-21 01:09:00,22.6,9.7,29.29,West,266,0.0,3.0,57,0.00,,,0.00,meteohub,2013-01-21 06:09:00,
2013-01-21 01:14:00,22.6,10.4,29.29,East,90,0.0,3.0,59,0.00,,,0.00,meteohub,2013-01-21 06:14:00,
2013-01-21 01:19:00,22.6,9.7,29.30,East,89,0.0,2.0,57,0.00,,,0.00,meteohub,2013-01-21 06:19:00,
2013-01-21 01:25:00,22.6,10.0,29.30,East,90,0.0,2.0,58,0.00,,,0.00,meteohub,2013-01-21 06:25:00,
2013-01-21 01:30:00,22.5,9.9,29.30,SW,223,2.0,2.0,58,0.00,,,0.00,meteohub,2013-01-21 06:30:00,
2013-01-21 01:35:00,22.5,10.2,29.30,East,89,0.0,4.0,59,0.00,,,0.00,meteohub,2013-01-21 06:35:00,
2013-01-21 01:40:00,22.5,9.9,29.30,East,91,0.0,4.0,58,0.00,,,0.00,meteohub,2013-01-21 06:40:00,
2013-01-21 01:46:00,22.3,10.6,29.31,East,90,0.0,3.0,60,0.00,,,0.00,meteohub,2013-01-21 06:46:00,
2013-01-21 01:51:00,22.1,11.1,29.31,South,174,0.0,0.0,62,0.00,,,0.00,meteohub,2013-01-21 06:51:00,
2013-01-21 01:56:00,21.7,11.5,29.31,South,174,0.0,0.0,64,0.00,,,0.00,meteohub,2013-01-21 06:56:00,
2013-01-21 02:01:00,21.6,12.0,29.31,SSW,193,1.0,0.0,66,0.00,,,0.00,meteohub,2013-01-21 07:01:00,
2013-01-21 02:06:00,21.4,11.8,29.31,WNW,301,0.0,1.0,66,0.00,,,0.00,meteohub,2013-01-21 07:06:00,
2013-01-21 02:12:00,21.2,10.9,29.31,WNW,301,0.0,1.0,64,0.00,,,0.00,meteohub,2013-01-21 07:12:00,
2013-01-21 02:17:00,21.2,10.9,29.32,NNW,338,0.0,1.0,64,0.00,,,0.00,meteohub,2013-01-21 07:17:00,
2013-01-21 02:22:00,21.0,10.0,29.32,NNW,337,0.0,0.0,62,0.00,,,0.00,meteohub,2013-01-21 07:22:00,
2013-01-21 02:27:00,21.0,10.8,29.32,NNW,338,0.0,0.0,64,0.00,,,0.00,meteohub,2013-01-21 07:27:00,
2013-01-21 02:32:00,20.8,11.3,29.32,SW,217,0.0,0.0,66,0.00,,,0.00,meteohub,2013-01-21 07:32:00,
2013-01-21 02:37:00,20.7,11.5,29.32,SW,225,0.0,0.0,67,0.00,,,0.00,meteohub,2013-01-21 07:37:00,
2013-01-21 02:42:00,20.5,11.7,29.32,SSW,201,0.0,2.0,68,0.00,,,0.00,meteohub,2013-01-21 07:42:00,
2013-01-21 02:47:00,20.5,11.3,29.32,SSW,201,0.0,2.0,67,0.00,,,0.00,meteohub,2013-01-21 07:47:00,
2013-01-21 02:52:00,20.5,11.3,29.33,South,190,0.0,1.0,67,0.00,,,0.00,meteohub,2013-01-21 07:52:00,
2013-01-21 02:57:00,20.3,11.5,29.33,South,191,0.0,0.0,68,0.00,,,0.00,meteohub,2013-01-21 07:57:00,
2013-01-21 03:02:00,20.3,11.8,29.33,NNW,329,0.0,0.0,69,0.00,,,0.00,meteohub,2013-01-21 08:02:00,
2013-01-21 03:08:00,20.5,11.7,29.33,SW,222,0.0,2.0,68,0.00,,,0.00,meteohub,2013-01-21 08:08:00,
2013-01-21 03:13:00,20.7,11.1,29.33,SSW,195,0.0,2.0,66,0.00,,,0.00,meteohub,2013-01-21 08:13:00,
2013-01-21 03:18:00,20.7,11.1,29.34,SW,221,0.0,2.0,66,0.00,,,0.00,meteohub,2013-01-21 08:18:00,
2013-01-21 03:24:00,20.7,11.5,29.34,SSW,212,0.0,2.0,67,0.00,,,0.00,meteohub,2013-01-21 08:24:00,
2013-01-21 03:29:00,20.5,10.6,29.34,West,262,0.0,1.0,65,0.00,,,0.00,meteohub,2013-01-21 08:29:00,
2013-01-21 03:34:00,20.5,10.6,29.34,SW,232,0.0,1.0,65,0.00,,,0.00,meteohub,2013-01-21 08:34:00,
2013-01-21 03:39:00,20.5,10.2,29.34,SW,225,0.0,1.0,64,0.00,,,0.00,meteohub,2013-01-21 08:39:00,
2013-01-21 03:44:00,20.3,9.3,29.34,SW,226,0.0,1.0,62,0.00,,,0.00,meteohub,2013-01-21 08:44:00,
2013-01-21 03:50:00,20.1,8.8,29.34,SW,225,0.0,1.0,61,0.00,,,0.00,meteohub,2013-01-21 08:50:00,
2013-01-21 03:55:00,19.9,9.0,29.34,East,84,0.0,1.0,62,0.00,,,0.00,meteohub,2013-01-21 08:55:00,
2013-01-21 04:00:00,19.9,9.0,29.34,SSE,152,0.0,1.0,62,0.00,,,0.00,meteohub,2013-01-21 09:00:00,
2013-01-21 04:05:00,19.9,9.0,29.34,SSE,153,0.0,1.0,62,0.00,,,0.00,meteohub,2013-01-21 09:05:00,
2013-01-21 04:11:00,19.8,8.4,29.34,SSE,153,0.0,0.0,61,0.00,,,0.00,meteohub,2013-01-21 09:11:00,
2013-01-21 04:16:00,19.8,8.4,29.34,NW,304,0.0,3.0,61,0.00,,,0.00,meteohub,2013-01-21 09:16:00,
2013-01-21 04:21:00,19.8,8.1,29.34,NE,36,0.0,3.0,60,0.00,,,0.00,meteohub,2013-01-21 09:21:00,
2013-01-21 04:26:00,19.8,8.1,29.34,South,191,0.0,4.0,60,0.00,,,0.00,meteohub,2013-01-21 09:26:00,
2013-01-21 04:32:00,19.8,8.1,29.34,South,190,0.0,4.0,60,0.00,,,0.00,meteohub,2013-01-21 09:32:00,
2013-01-21 04:37:00,19.6,7.5,29.34,South,191,0.0,1.0,59,0.00,,,0.00,meteohub,2013-01-21 09:37:00,
2013-01-21 04:42:00,19.4,7.3,29.34,South,191,0.0,0.0,59,0.00,,,0.00,meteohub,2013-01-21 09:42:00,
2013-01-21 04:48:00,19.2,7.2,29.34,SE,126,0.0,0.0,59,0.00,,,0.00,meteohub,2013-01-21 09:48:00,
2013-01-21 04:53:00,19.2,7.7,29.34,SE,126,0.0,0.0,60,0.00,,,0.00,meteohub,2013-01-21 09:53:00,
2013-01-21 04:58:00,19.2,7.2,29.34,SE,126,0.0,0.0,59,0.00,,,0.00,meteohub,2013-01-21 09:58:00,
2013-01-21 05:03:00,19.0,7.2,29.34,SE,126,0.0,0.0,59,0.00,,,0.00,meteohub,2013-01-21 10:03:00,
2013-01-21 05:08:00,18.9,7.0,29.34,SE,126,0.0,0.0,59,0.00,,,0.00,meteohub,2013-01-21 10:08:00,
2013-01-21 05:13:00,18.9,7.0,29.34,SE,126,0.0,0.0,59,0.00,,,0.00,meteohub,2013-01-21 10:13:00,
2013-01-21 05:19:00,18.7,6.8,29.34,SE,125,0.0,0.0,59,0.00,,,0.00,meteohub,2013-01-21 10:19:00,
2013-01-21 05:24:00,18.5,6.6,29.35,SE,126,0.0,0.0,59,0.00,,,0.00,meteohub,2013-01-21 10:24:00,
2013-01-21 05:29:00,18.3,6.8,29.34,SE,126,0.0,0.0,60,0.00,,,0.00,meteohub,2013-01-21 10:29:00,
2013-01-21 05:34:00,18.3,7.2,29.34,SE,126,0.0,0.0,61,0.00,,,0.00,meteohub,2013-01-21 10:34:00,
2013-01-21 05:40:00,18.1,6.6,29.34,SE,126,0.0,0.0,60,0.00,,,0.00,meteohub,2013-01-21 10:40:00,
2013-01-21 05:45:00,18.1,7.3,29.34,SE,125,0.0,0.0,62,0.00,,,0.00,meteohub,2013-01-21 10:45:00,
2013-01-21 05:50:00,18.1,8.1,29.33,SE,125,0.0,1.0,64,0.00,,,0.00,meteohub,2013-01-21 10:50:00,
2013-01-21 05:56:00,18.1,8.1,29.34,SE,126,0.0,1.0,64,0.00,,,0.00,meteohub,2013-01-21 10:56:00,
2013-01-21 06:01:00,18.1,8.1,29.34,SE,125,0.0,1.0,64,0.00,,,0.00,meteohub,2013-01-21 11:01:00,
2013-01-21 06:06:00,18.0,7.5,29.34,SE,125,0.0,0.0,63,0.00,,,0.00,meteohub,2013-01-21 11:06:00,
2013-01-21 06:11:00,17.8,7.3,29.34,SE,126,0.0,0.0,63,0.00,,,0.00,meteohub,2013-01-21 11:11:00,
2013-01-21 06:17:00,17.8,7.3,29.34,SE,126,0.0,0.0,63,0.00,,,0.00,meteohub,2013-01-21 11:17:00,
2013-01-21 06:22:00,17.8,7.7,29.35,SE,126,0.0,0.0,64,0.00,,,0.00,meteohub,2013-01-21 11:22:00,
2013-01-21 06:27:00,17.6,7.9,29.35,SE,126,0.0,0.0,65,0.00,,,0.00,meteohub,2013-01-21 11:27:00,
2013-01-21 06:32:00,17.4,7.7,29.35,SE,126,0.0,0.0,65,0.00,,,0.00,meteohub,2013-01-21 11:32:00,
2013-01-21 06:37:00,17.4,9.0,29.35,SE,125,0.0,0.0,69,0.00,,,0.00,meteohub,2013-01-21 11:37:00,
2013-01-21 06:43:00,17.4,8.6,29.36,SE,126,0.0,0.0,68,0.00,,,0.00,meteohub,2013-01-21 11:43:00,
2013-01-21 06:48:00,17.6,9.5,29.35,SE,127,0.0,0.0,70,0.00,,,0.00,meteohub,2013-01-21 11:48:00,
2013-01-21 06:53:00,17.8,9.7,29.35,SE,127,0.0,0.0,70,0.00,,,0.00,meteohub,2013-01-21 11:53:00,
2013-01-21 06:58:00,18.0,10.2,29.36,SE,127,0.0,0.0,71,0.00,,,0.00,meteohub,2013-01-21 11:58:00,
2013-01-21 07:03:00,18.0,9.9,29.35,SE,127,0.0,0.0,70,0.00,,,0.00,meteohub,2013-01-21 12:03:00,
2013-01-21 07:08:00,18.1,10.0,29.36,SE,127,0.0,0.0,70,0.00,,,0.00,meteohub,2013-01-21 12:08:00,
2013-01-21 07:14:00,18.3,10.8,29.36,SE,127,0.0,0.0,72,0.00,,,0.00,meteohub,2013-01-21 12:14:00,
2013-01-21 07:19:00,18.5,10.9,29.36,SE,127,0.0,0.0,72,0.00,,,0.00,meteohub,2013-01-21 12:19:00,
2013-01-21 07:24:00,18.5,10.4,29.36,SE,127,0.0,0.0,70,0.00,,,0.00,meteohub,2013-01-21 12:24:00,
2013-01-21 07:29:00,18.5,10.4,29.36,SE,127,0.0,0.0,70,0.00,,,0.00,meteohub,2013-01-21 12:29:00,
2013-01-21 07:34:00,18.7,10.6,29.36,SE,127,0.0,0.0,70,0.00,,,0.00,meteohub,2013-01-21 12:34:00,
2013-01-21 07:39:00,18.5,10.4,29.36,SE,127,0.0,0.0,70,0.00,,,0.00,meteohub,2013-01-21 12:39:00,
2013-01-21 07:44:00,18.5,10.4,29.35,SE,127,0.0,0.0,70,0.00,,,0.00,meteohub,2013-01-21 12:44:00,
2013-01-21 07:49:00,18.5,10.4,29.35,SE,127,0.0,0.0,70,0.00,,,0.00,meteohub,2013-01-21 12:49:00,
2013-01-21 07:54:00,18.5,10.0,29.35,SE,127,0.0,0.0,69,0.00,,,0.00,meteohub,2013-01-21 12:54:00,
2013-01-21 07:59:00,18.5,10.0,29.36,SE,127,0.0,0.0,69,0.00,,,0.00,meteohub,2013-01-21 12:59:00,
2013-01-21 08:05:00,18.5,10.8,29.36,SE,127,0.0,0.0,71,0.00,,,0.00,meteohub,2013-01-21 13:05:00,
2013-01-21 08:10:00,18.5,10.8,29.36,SE,127,0.0,0.0,71,0.00,,,0.00,meteohub,2013-01-21 13:10:00,
2013-01-21 08:15:00,18.7,10.2,29.36,SE,127,0.0,0.0,69,0.00,,,0.00,meteohub,2013-01-21 13:15:00,
2013-01-21 08:20:00,18.9,11.3,29.36,SE,127,0.0,0.0,72,0.00,,,0.00,meteohub,2013-01-21 13:20:00,
2013-01-21 08:25:00,19.0,11.1,29.37,SE,127,0.0,0.0,71,0.00,,,0.00,meteohub,2013-01-21 13:25:00,
2013-01-21 08:30:00,19.2,11.1,29.37,SE,127,0.0,0.0,70,0.00,,,0.00,meteohub,2013-01-21 13:30:00,
2013-01-21 08:35:00,19.4,11.5,29.38,SE,127,0.0,0.0,71,0.00,,,0.00,meteohub,2013-01-21 13:35:00,
2013-01-21 08:41:00,19.8,11.3,29.37,SE,126,0.0,0.0,69,0.00,,,0.00,meteohub,2013-01-21 13:41:00,
2013-01-21 08:46:00,19.9,11.1,29.37,SE,126,0.0,0.0,68,0.00,,,0.00,meteohub,2013-01-21 13:46:00,
2013-01-21 08:51:00,20.1,10.2,29.37,SE,125,0.0,0.0,65,0.00,,,0.00,meteohub,2013-01-21 13:51:00,
2013-01-21 08:56:00,20.5,10.2,29.37,SE,126,0.0,0.0,64,0.00,,,0.00,meteohub,2013-01-21 13:56:00,
2013-01-21 09:01:00,20.8,10.9,29.37,SE,125,0.0,0.0,65,0.00,,,0.00,meteohub,2013-01-21 14:01:00,
2013-01-21 09:06:00,21.2,11.3,29.37,SE,125,0.0,0.0,65,0.00,,,0.00,meteohub,2013-01-21 14:06:00,
2013-01-21 09:11:00,21.4,10.4,29.37,SE,126,0.0,0.0,62,0.00,,,0.00,meteohub,2013-01-21 14:11:00,
2013-01-21 09:16:00,21.7,10.8,29.37,SE,125,0.0,0.0,62,0.00,,,0.00,meteohub,2013-01-21 14:16:00,
2013-01-21 09:21:00,22.1,11.1,29.38,SE,125,0.0,0.0,62,0.00,,,0.00,meteohub,2013-01-21 14:21:00,
2013-01-21 09:26:00,22.3,10.6,29.37,ESE,104,0.0,0.0,60,0.00,,,0.00,meteohub,2013-01-21 14:26:00,
2013-01-21 09:32:00,22.5,10.8,29.37,ESE,104,0.0,0.0,60,0.00,,,0.00,meteohub,2013-01-21 14:32:00,
2013-01-21 09:37:00,22.6,11.3,29.37,ESE,104,0.0,1.0,61,0.00,,,0.00,meteohub,2013-01-21 14:37:00,
2013-01-21 09:42:00,22.8,10.6,29.37,ESE,103,0.0,1.0,59,0.00,,,0.00,meteohub,2013-01-21 14:42:00,
2013-01-21 09:47:00,22.8,10.2,29.37,East,101,0.0,1.0,58,0.00,,,0.00,meteohub,2013-01-21 14:47:00,
2013-01-21 09:52:00,23.2,10.6,29.37,East,90,0.0,1.0,58,0.00,,,0.00,meteohub,2013-01-21 14:52:00,
2013-01-21 09:57:00,23.5,10.2,29.37,East,79,0.0,1.0,56,0.00,,,0.00,meteohub,2013-01-21 14:57:00,
2013-01-21 10:02:00,24.1,10.6,29.37,South,172,0.0,1.0,56,0.00,,,0.00,meteohub,2013-01-21 15:02:00,
2013-01-21 10:07:00,24.6,11.1,29.37,North,5,3.0,3.0,56,0.00,,,0.00,meteohub,2013-01-21 15:07:00,
2013-01-21 10:12:00,25.0,11.1,29.37,WSW,252,0.0,4.0,55,0.00,,,0.00,meteohub,2013-01-21 15:12:00,
2013-01-21 10:17:00,25.2,10.4,29.36,SSW,195,0.0,4.0,53,0.00,,,0.00,meteohub,2013-01-21 15:17:00,
2013-01-21 10:22:00,25.3,11.5,29.36,ENE,74,0.0,4.0,55,0.00,,,0.00,meteohub,2013-01-21 15:22:00,
2013-01-21 10:27:00,25.5,11.7,29.36,SW,217,0.0,3.0,55,0.00,,,0.00,meteohub,2013-01-21 15:27:00,
2013-01-21 10:32:00,26.1,11.3,29.36,ESE,105,0.0,3.0,53,0.00,,,0.00,meteohub,2013-01-21 15:32:00,
2013-01-21 10:37:00,26.2,11.8,29.36,ENE,77,0.0,3.0,54,0.00,,,0.00,meteohub,2013-01-21 15:37:00,
2013-01-21 10:42:00,26.1,9.5,29.36,ESE,122,1.0,2.0,49,0.00,,,0.00,meteohub,2013-01-21 15:42:00,
2013-01-21 10:47:00,25.9,9.9,29.35,SSE,148,2.0,4.0,50,0.00,,,0.00,meteohub,2013-01-21 15:47:00,
2013-01-21 10:52:00,26.1,10.8,29.35,ESE,121,0.0,5.0,52,0.00,,,0.00,meteohub,2013-01-21 15:52:00,
2013-01-21 10:57:00,26.2,10.6,29.34,ENE,70,0.0,5.0,51,0.00,,,0.00,meteohub,2013-01-21 15:57:00,
2013-01-21 11:02:00,26.2,11.5,29.34,South,191,1.0,5.0,53,0.00,,,0.00,meteohub,2013-01-21 16:02:00,
2013-01-21 11:07:00,26.1,10.0,29.34,SSE,153,0.0,4.0,50,0.00,,,0.00,meteohub,2013-01-21 16:07:00,
2013-01-21 11:12:00,26.1,10.8,29.34,South,181,0.0,5.0,52,0.00,,,0.00,meteohub,2013-01-21 16:12:00,
2013-01-21 11:17:00,26.2,10.6,29.34,West,262,0.0,5.0,51,0.00,,,0.00,meteohub,2013-01-21 16:17:00,
2013-01-21 11:22:00,26.4,11.7,29.33,ENE,75,1.0,5.0,53,0.00,,,0.00,meteohub,2013-01-21 16:22:00,
2013-01-21 11:27:00,26.6,11.8,29.32,East,86,0.0,4.0,53,0.00,,,0.00,meteohub,2013-01-21 16:27:00,
2013-01-21 11:32:00,26.4,10.8,29.31,South,170,3.0,5.0,51,0.00,,,0.00,meteohub,2013-01-21 16:32:00,
2013-01-21 11:37:00,26.2,10.9,29.31,SSE,163,2.0,5.0,52,0.00,,,0.00,meteohub,2013-01-21 16:37:00,
2013-01-21 11:42:00,26.4,11.7,29.31,ENE,75,1.0,5.0,53,0.00,,,0.00,meteohub,2013-01-21 16:42:00,
2013-01-21 11:47:00,26.2,10.6,29.30,SE,129,2.0,5.0,51,0.00,,,0.00,meteohub,2013-01-21 16:47:00,
2013-01-21 11:52:00,26.2,11.5,29.30,SSE,163,0.0,5.0,53,0.00,,,0.00,meteohub,2013-01-21 16:52:00,
2013-01-21 11:57:00,26.4,11.7,29.29,SSE,148,0.0,5.0,53,0.00,,,0.00,meteohub,2013-01-21 16:57:00,
2013-01-21 12:02:00,26.8,11.5,29.29,East,88,0.0,4.0,52,0.00,,,0.00,meteohub,2013-01-21 17:02:00,
2013-01-21 12:07:00,27.0,12.6,29.29,SSE,162,1.0,4.0,54,0.00,,,0.00,meteohub,2013-01-21 17:07:00,
2013-01-21 12:12:00,27.0,12.0,29.29,WSW,252,3.0,3.0,53,0.00,,,0.00,meteohub,2013-01-21 17:12:00,
2013-01-21 12:17:00,27.0,12.0,29.29,SSW,197,1.0,3.0,53,0.00,,,0.00,meteohub,2013-01-21 17:17:00,
2013-01-21 12:22:00,27.0,12.0,29.29,SSE,147,0.0,3.0,53,0.00,,,0.00,meteohub,2013-01-21 17:22:00,
2013-01-21 12:27:00,27.0,11.7,29.28,SSE,150,1.0,3.0,52,0.00,,,0.00,meteohub,2013-01-21 17:27:00,
2013-01-21 12:32:00,26.8,12.0,29.27,South,186,2.0,4.0,53,0.00,,,0.00,meteohub,2013-01-21 17:32:00,
2013-01-21 12:37:00,26.8,12.7,29.27,SSE,167,0.0,4.0,55,0.00,,,0.00,meteohub,2013-01-21 17:37:00,
2013-01-21 12:42:00,27.0,13.3,29.27,SSE,167,0.0,4.0,56,0.00,,,0.00,meteohub,2013-01-21 17:42:00,
2013-01-21 12:47:00,27.1,12.7,29.27,WNW,282,0.0,4.0,54,0.00,,,0.00,meteohub,2013-01-21 17:47:00,
2013-01-21 12:52:00,27.3,12.4,29.26,ESE,120,0.0,2.0,53,0.00,,,0.00,meteohub,2013-01-21 17:52:00,
2013-01-21 12:57:00,27.1,12.7,29.26,South,180,2.0,2.0,54,0.00,,,0.00,meteohub,2013-01-21 17:57:00,
2013-01-21 13:02:00,27.1,13.1,29.26,East,91,0.0,2.0,55,0.00,,,0.00,meteohub,2013-01-21 18:02:00,
2013-01-21 13:07:00,27.0,13.3,29.26,SSE,158,4.0,4.0,56,0.00,,,0.00,meteohub,2013-01-21 18:07:00,
2013-01-21 13:12:00,26.4,12.9,29.26,SE,142,0.0,6.0,56,0.00,,,0.00,meteohub,2013-01-21 18:12:00,
2013-01-21 13:17:00,26.4,12.0,29.26,SSE,167,1.0,6.0,54,0.00,,,0.00,meteohub,2013-01-21 18:17:00,
2013-01-21 13:22:00,26.2,12.2,29.25,SSW,198,2.0,6.0,55,0.00,,,0.00,meteohub,2013-01-21 18:22:00,
2013-01-21 13:27:00,26.2,12.2,29.25,SW,219,0.0,5.0,55,0.00,,,0.00,meteohub,2013-01-21 18:27:00,
2013-01-21 13:32:00,26.4,12.9,29.24,South,172,2.0,5.0,56,0.00,,,0.00,meteohub,2013-01-21 18:32:00,
2013-01-21 13:37:00,26.4,13.3,29.24,WSW,255,2.0,5.0,57,0.00,,,0.00,meteohub,2013-01-21 18:37:00,
2013-01-21 13:43:00,26.4,12.4,29.24,SSE,153,1.0,7.0,55,0.00,,,0.00,meteohub,2013-01-21 18:43:00,
2013-01-21 13:48:00,26.4,12.9,29.23,ESE,111,0.0,7.0,56,0.00,,,0.00,meteohub,2013-01-21 18:48:00,
2013-01-21 13:53:00,26.4,12.0,29.23,ESE,120,0.0,7.0,54,0.00,,,0.00,meteohub,2013-01-21 18:53:00,
2013-01-21 13:58:00,26.4,12.4,29.23,SE,129,2.0,7.0,55,0.00,,,0.00,meteohub,2013-01-21 18:58:00,
2013-01-21 14:03:00,26.2,13.1,29.23,South,177,0.0,7.0,57,0.00,,,0.00,meteohub,2013-01-21 19:03:00,
2013-01-21 14:08:00,26.2,12.2,29.23,ENE,68,3.0,5.0,55,0.00,,,0.00,meteohub,2013-01-21 19:08:00,
2013-01-21 14:13:00,26.2,13.5,29.23,ESE,122,0.0,5.0,58,0.00,,,0.00,meteohub,2013-01-21 19:13:00,
2013-01-21 14:18:00,26.2,14.2,29.23,East,87,1.0,5.0,60,0.00,,,0.00,meteohub,2013-01-21 19:18:00,
2013-01-21 14:24:00,26.2,13.8,29.23,South,176,2.0,5.0,59,0.00,,,0.00,meteohub,2013-01-21 19:24:00,
2013-01-21 14:29:00,26.2,14.2,29.23,South,183,1.0,3.0,60,0.00,,,0.00,meteohub,2013-01-21 19:29:00,
2013-01-21 14:34:00,26.2,14.5,29.23,SE,143,0.0,5.0,61,0.00,,,0.00,meteohub,2013-01-21 19:34:00,
2013-01-21 14:39:00,26.1,14.5,29.23,SSE,159,0.0,5.0,61,0.00,,,0.00,meteohub,2013-01-21 19:39:00,
2013-01-21 14:44:00,26.1,14.5,29.23,SSE,147,0.0,5.0,61,0.00,,,0.00,meteohub,2013-01-21 19:44:00,
2013-01-21 14:49:00,25.9,14.7,29.23,East,86,3.0,5.0,62,0.00,,,0.00,meteohub,2013-01-21 19:49:00,
2013-01-21 14:54:00,25.5,14.7,29.23,South,179,3.0,6.0,63,0.00,,,0.00,meteohub,2013-01-21 19:54:00,
2013-01-21 14:59:00,25.5,15.8,29.23,SSE,152,0.0,6.0,66,0.00,,,0.00,meteohub,2013-01-21 19:59:00,
2013-01-21 15:05:00,25.3,15.6,29.23,East,86,1.0,6.0,66,0.00,,,0.00,meteohub,2013-01-21 20:05:00,
2013-01-21 15:10:00,25.2,16.2,29.22,East,88,1.0,5.0,68,0.00,,,0.00,meteohub,2013-01-21 20:10:00,
2013-01-21 15:15:00,24.8,16.7,29.22,SSW,212,2.0,5.0,71,0.00,,,0.00,meteohub,2013-01-21 20:15:00,
2013-01-21 15:20:00,24.6,16.9,29.22,SW,214,1.0,5.0,72,0.00,,,0.00,meteohub,2013-01-21 20:20:00,
2013-01-21 15:25:00,24.6,16.9,29.21,South,179,1.0,4.0,72,0.00,,,0.00,meteohub,2013-01-21 20:25:00,
2013-01-21 15:30:00,24.4,17.4,29.21,SE,131,0.0,6.0,74,0.00,,,0.00,meteohub,2013-01-21 20:30:00,
2013-01-21 15:35:00,24.4,17.6,29.21,SSE,162,2.0,6.0,75,0.00,,,0.00,meteohub,2013-01-21 20:35:00,
2013-01-21 15:41:00,24.3,17.8,29.21,South,177,0.0,3.0,76,0.00,,,0.00,meteohub,2013-01-21 20:41:00,
2013-01-21 15:46:00,24.1,17.6,29.21,SSE,166,0.0,4.0,76,0.00,,,0.00,meteohub,2013-01-21 20:46:00,
2013-01-21 15:51:00,23.9,17.8,29.20,South,179,0.0,4.0,77,0.00,,,0.00,meteohub,2013-01-21 20:51:00,
2013-01-21 15:56:00,23.7,18.0,29.20,ESE,114,0.0,3.0,78,0.00,,,0.00,meteohub,2013-01-21 20:56:00,
2013-01-21 16:01:00,23.7,18.1,29.20,SSE,156,0.0,3.0,79,0.00,,,0.00,meteohub,2013-01-21 21:01:00,
2013-01-21 16:06:00,23.7,18.5,29.20,SE,125,0.0,3.0,80,0.00,,,0.00,meteohub,2013-01-21 21:06:00,
2013-01-21 16:11:00,23.5,18.5,29.20,SE,129,0.0,3.0,81,0.00,,,0.00,meteohub,2013-01-21 21:11:00,
2013-01-21 16:16:00,23.5,18.5,29.20,SE,125,0.0,3.0,81,0.00,,,0.00,meteohub,2013-01-21 21:16:00,
2013-01-21 16:22:00,23.4,18.7,29.20,SSE,167,0.0,3.0,82,0.00,,,0.00,meteohub,2013-01-21 21:22:00,
2013-01-21 16:27:00,23.4,19.0,29.20,East,87,0.0,1.0,83,0.00,,,0.00,meteohub,2013-01-21 21:27:00,
2013-01-21 16:32:00,23.2,18.9,29.20,North,11,0.0,1.0,83,0.00,,,0.00,meteohub,2013-01-21 21:32:00,
2013-01-21 16:37:00,23.2,19.0,29.19,NNE,13,0.0,1.0,84,0.00,,,0.00,meteohub,2013-01-21 21:37:00,
2013-01-21 16:42:00,23.2,19.0,29.19,NNE,13,0.0,1.0,84,0.00,,,0.00,meteohub,2013-01-21 21:42:00,
2013-01-21 16:47:00,23.0,18.9,29.19,NNE,13,0.0,1.0,84,0.00,,,0.00,meteohub,2013-01-21 21:47:00,
2013-01-21 16:52:00,22.8,19.0,29.19,NNE,13,0.0,1.0,85,0.00,,,0.00,meteohub,2013-01-21 21:52:00,
2013-01-21 16:57:00,22.8,19.0,29.19,ESE,110,0.0,1.0,85,0.00,,,0.00,meteohub,2013-01-21 21:57:00,
2013-01-21 17:02:00,22.8,19.0,29.19,SSE,164,1.0,2.0,85,0.00,,,0.00,meteohub,2013-01-21 22:02:00,
2013-01-21 17:07:00,22.8,19.0,29.19,SW,216,0.0,3.0,85,0.00,,,0.00,meteohub,2013-01-21 22:07:00,
2013-01-21 17:12:00,22.8,19.0,29.19,SE,143,0.0,3.0,85,0.00,,,0.00,meteohub,2013-01-21 22:12:00,
2013-01-21 17:17:00,22.8,19.2,29.19,SSW,207,1.0,3.0,86,0.00,,,0.00,meteohub,2013-01-21 22:17:00,
2013-01-21 17:22:00,22.8,19.2,29.19,SSE,158,0.0,3.0,86,0.00,,,0.00,meteohub,2013-01-21 22:22:00,
2013-01-21 17:27:00,22.8,19.2,29.19,SW,228,1.0,3.0,86,0.00,,,0.00,meteohub,2013-01-21 22:27:00,
2013-01-21 17:32:00,22.8,19.2,29.19,SSE,157,0.0,3.0,86,0.00,,,0.00,meteohub,2013-01-21 22:32:00,
2013-01-21 17:37:00,22.8,19.6,29.19,SSE,156,0.0,2.0,87,0.00,,,0.00,meteohub,2013-01-21 22:37:00,
2013-01-21 17:42:00,22.8,19.6,29.18,SE,139,1.0,2.0,87,0.00,,,0.00,meteohub,2013-01-21 22:42:00,
2013-01-21 17:47:00,22.8,19.6,29.19,SSE,150,0.0,1.0,87,0.00,,,0.00,meteohub,2013-01-21 22:47:00,
2013-01-21 17:52:00,22.8,19.6,29.18,SSE,150,0.0,1.0,87,0.00,,,0.00,meteohub,2013-01-21 22:52:00,
2013-01-21 17:57:00,22.8,19.6,29.18,SSE,149,0.0,1.0,87,0.00,,,0.00,meteohub,2013-01-21 22:57:00,
2013-01-21 18:02:00,22.8,19.6,29.18,SSE,149,0.0,0.0,87,0.00,,,0.00,meteohub,2013-01-21 23:02:00,
2013-01-21 18:07:00,22.8,19.6,29.18,SSE,150,0.0,0.0,87,0.00,,,0.00,meteohub,2013-01-21 23:07:00,
2013-01-21 18:12:00,22.8,19.6,29.18,SSE,149,0.0,0.0,87,0.00,,,0.00,meteohub,2013-01-21 23:12:00,
2013-01-21 18:17:00,22.8,19.6,29.18,SSE,149,0.0,0.0,87,0.00,,,0.00,meteohub,2013-01-21 23:17:00,
2013-01-21 18:22:00,22.8,19.6,29.18,SSE,149,0.0,0.0,87,0.00,,,0.00,meteohub,2013-01-21 23:22:00,
2013-01-21 18:27:00,22.8,19.6,29.18,SSE,149,0.0,0.0,87,0.00,,,0.00,meteohub,2013-01-21 23:27:00,
2013-01-21 18:32:00,22.8,19.6,29.18,SSE,150,0.0,0.0,87,0.00,,,0.00,meteohub,2013-01-21 23:32:00,
2013-01-21 18:37:00,22.8,19.8,29.18,SSE,149,0.0,0.0,88,0.00,,,0.00,meteohub,2013-01-21 23:37:00,
2013-01-21 18:42:00,22.8,19.8,29.18,SSE,149,0.0,0.0,88,0.00,,,0.00,meteohub,2013-01-21 23:42:00,
2013-01-21 18:47:00,22.8,19.8,29.18,SSE,150,0.0,0.0,88,0.00,,,0.00,meteohub,2013-01-21 23:47:00,
2013-01-21 18:52:00,22.8,19.8,29.18,SSE,149,0.0,0.0,88,0.00,,,0.00,meteohub,2013-01-21 23:52:00,
2013-01-21 18:57:00,22.8,20.1,29.18,SSE,149,0.0,0.0,89,0.00,,,0.00,meteohub,2013-01-21 23:57:00,
2013-01-21 19:02:00,22.8,20.1,29.18,SSE,149,0.0,0.0,89,0.00,,,0.00,meteohub,2013-01-22 00:02:00,
2013-01-21 19:07:00,22.8,20.1,29.18,SSE,149,0.0,0.0,89,0.00,,,0.00,meteohub,2013-01-22 00:07:00,
2013-01-21 19:12:00,22.8,20.1,29.18,SSE,149,0.0,0.0,89,0.00,,,0.00,meteohub,2013-01-22 00:12:00,
2013-01-21 19:18:00,22.8,20.1,29.18,SSE,149,0.0,0.0,89,0.00,,,0.00,meteohub,2013-01-22 00:18:00,
2013-01-21 19:23:00,22.8,20.3,29.18,SSE,149,0.0,0.0,90,0.00,,,0.00,meteohub,2013-01-22 00:23:00,
2013-01-21 19:28:00,22.8,20.3,29.18,SSE,150,0.0,0.0,90,0.00,,,0.00,meteohub,2013-01-22 00:28:00,
2013-01-21 19:33:00,22.8,20.3,29.18,SSE,150,0.0,0.0,90,0.00,,,0.00,meteohub,2013-01-22 00:33:00,
2013-01-21 19:38:00,22.8,20.3,29.18,SSE,149,0.0,0.0,90,0.00,,,0.00,meteohub,2013-01-22 00:38:00,
2013-01-21 19:43:00,22.8,20.3,29.18,SSE,149,0.0,0.0,90,0.00,,,0.00,meteohub,2013-01-22 00:43:00,
2013-01-21 19:48:00,22.8,20.7,29.18,SSE,149,0.0,0.0,91,0.00,,,0.00,meteohub,2013-01-22 00:48:00,
2013-01-21 19:54:00,22.8,20.7,29.18,SSE,149,0.0,0.0,91,0.00,,,0.00,meteohub,2013-01-22 00:54:00,
2013-01-21 19:59:00,22.8,20.7,29.18,SSE,149,0.0,0.0,91,0.00,,,0.00,meteohub,2013-01-22 00:59:00,
2013-01-21 20:04:00,22.8,20.7,29.18,SSE,150,0.0,0.0,91,0.00,,,0.00,meteohub,2013-01-22 01:04:00,
2013-01-21 20:09:00,22.8,20.7,29.18,SSE,150,0.0,0.0,91,0.00,,,0.00,meteohub,2013-01-22 01:09:00,
2013-01-21 20:14:00,22.6,20.5,29.17,SSE,150,0.0,0.0,91,0.00,,,0.00,meteohub,2013-01-22 01:14:00,
2013-01-21 20:19:00,22.6,20.5,29.17,SSE,149,0.0,0.0,91,0.00,,,0.00,meteohub,2013-01-22 01:19:00,
2013-01-21 20:24:00,22.5,20.3,29.16,SSE,150,0.0,0.0,91,0.00,,,0.00,meteohub,2013-01-22 01:24:00,
2013-01-21 20:29:00,22.1,19.9,29.16,SSE,150,0.0,0.0,91,0.00,,,0.00,meteohub,2013-01-22 01:29:00,
2013-01-21 20:34:00,21.9,19.8,29.16,SSE,149,0.0,0.0,91,0.00,,,0.00,meteohub,2013-01-22 01:34:00,
2013-01-21 20:40:00,21.6,19.4,29.16,SSE,149,0.0,0.0,91,0.00,,,0.00,meteohub,2013-01-22 01:40:00,
2013-01-21 20:45:00,21.4,19.2,29.16,SSE,150,0.0,0.0,91,0.00,,,0.00,meteohub,2013-01-22 01:45:00,
2013-01-21 20:50:00,21.0,18.9,29.16,SSE,150,0.0,0.0,91,0.00,,,0.00,meteohub,2013-01-22 01:50:00,
2013-01-21 20:55:00,20.8,18.9,29.16,SSE,149,0.0,0.0,92,0.00,,,0.00,meteohub,2013-01-22 01:55:00,
2013-01-21 21:00:00,20.8,18.9,29.16,SSE,149,0.0,0.0,92,0.00,,,0.00,meteohub,2013-01-22 02:00:00,
2013-01-21 21:05:00,20.8,18.9,29.16,SSE,149,0.0,0.0,92,0.00,,,0.00,meteohub,2013-01-22 02:05:00,
2013-01-21 21:10:00,20.7,18.7,29.15,SSE,149,0.0,0.0,92,0.00,,,0.00,meteohub,2013-01-22 02:10:00,
2013-01-21 21:16:00,20.5,18.5,29.15,SSE,150,0.0,0.0,92,0.00,,,0.00,meteohub,2013-01-22 02:16:00,
2013-01-21 21:21:00,20.3,18.3,29.15,SSE,149,0.0,0.0,92,0.00,,,0.00,meteohub,2013-01-22 02:21:00,
2013-01-21 21:26:00,20.1,18.1,29.14,SSE,149,0.0,0.0,92,0.00,,,0.00,meteohub,2013-01-22 02:26:00,
2013-01-21 21:31:00,20.1,18.5,29.14,SSE,149,0.0,0.0,93,0.00,,,0.00,meteohub,2013-01-22 02:31:00,
2013-01-21 21:36:00,19.9,18.0,29.14,SSE,149,0.0,0.0,92,0.00,,,0.00,meteohub,2013-01-22 02:36:00,
2013-01-21 21:41:00,19.8,17.8,29.13,SSE,149,0.0,0.0,92,0.00,,,0.00,meteohub,2013-01-22 02:41:00,
2013-01-21 21:46:00,19.8,18.1,29.13,SSE,149,0.0,0.0,93,0.00,,,0.00,meteohub,2013-01-22 02:46:00,
2013-01-21 21:51:00,19.6,18.0,29.14,SSE,149,0.0,0.0,93,0.00,,,0.00,meteohub,2013-01-22 02:51:00,
2013-01-21 21:56:00,19.6,18.0,29.14,SSE,149,0.0,0.0,93,0.00,,,0.00,meteohub,2013-01-22 02:56:00,
2013-01-21 22:02:00,19.6,18.0,29.13,SSE,149,0.0,0.0,93,0.00,,,0.00,meteohub,2013-01-22 03:02:00,
2013-01-21 22:07:00,19.4,17.8,29.13,SSE,149,0.0,0.0,93,0.00,,,0.00,meteohub,2013-01-22 03:07:00,
2013-01-21 22:12:00,19.4,17.8,29.12,SSE,149,0.0,0.0,93,0.00,,,0.00,meteohub,2013-01-22 03:12:00,
2013-01-21 22:17:00,19.4,17.8,29.12,SSE,149,0.0,0.0,93,0.00,,,0.00,meteohub,2013-01-22 03:17:00,
2013-01-21 22:22:00,19.2,17.6,29.12,SSE,149,0.0,0.0,93,0.00,,,0.00,meteohub,2013-01-22 03:22:00,
2013-01-21 22:27:00,19.0,17.4,29.12,SSE,149,0.0,0.0,93,0.00,,,0.00,meteohub,2013-01-22 03:27:00,
2013-01-21 22:32:00,19.0,17.4,29.11,SSE,149,0.0,0.0,93,0.00,,,0.00,meteohub,2013-01-22 03:32:00,
2013-01-21 22:37:00,18.7,17.1,29.11,SSE,149,0.0,0.0,93,0.00,,,0.00,meteohub,2013-01-22 03:37:00,
2013-01-21 22:42:00,18.5,16.9,29.12,SSE,149,0.0,0.0,93,0.00,,,0.00,meteohub,2013-01-22 03:42:00,
2013-01-21 22:47:00,18.3,16.7,29.12,SSE,149,0.0,0.0,93,0.00,,,0.00,meteohub,2013-01-22 03:47:00,
2013-01-21 22:52:00,18.1,16.5,29.12,SSE,149,0.0,0.0,93,0.00,,,0.00,meteohub,2013-01-22 03:52:00,
2013-01-21 22:57:00,18.0,16.3,29.11,SSE,149,0.0,0.0,93,0.00,,,0.00,meteohub,2013-01-22 03:57:00,
2013-01-21 23:02:00,17.8,16.2,29.10,SSE,149,0.0,0.0,93,0.00,,,0.00,meteohub,2013-01-22 04:02:00,
2013-01-21 23:07:00,17.8,16.2,29.10,SSE,149,0.0,0.0,93,0.00,,,0.00,meteohub,2013-01-22 04:07:00,
2013-01-21 23:12:00,17.6,16.0,29.10,SSE,149,0.0,0.0,93,0.00,,,0.00,meteohub,2013-01-22 04:12:00,
2013-01-21 23:17:00,17.4,15.8,29.10,SSE,149,0.0,0.0,93,0.00,,,0.00,meteohub,2013-01-22 04:17:00,
2013-01-21 23:22:00,17.1,15.4,29.10,SSE,149,0.0,0.0,93,0.00,,,0.00,meteohub,2013-01-22 04:22:00,
2013-01-21 23:27:00,16.9,15.3,29.10,SSE,149,0.0,0.0,93,0.00,,,0.00,meteohub,2013-01-22 04:27:00,
2013-01-21 23:32:00,16.5,14.9,29.09,SSE,149,0.0,0.0,93,0.00,,,0.00,meteohub,2013-01-22 04:32:00,
2013-01-21 23:37:00,16.3,14.7,29.09,SSE,149,0.0,0.0,93,0.00,,,0.00,meteohub,2013-01-22 04:37:00,
2013-01-21 23:42:00,16.2,14.5,29.09,SSE,149,0.0,0.0,93,0.00,,,0.00,meteohub,2013-01-22 04:42:00,
2013-01-21 23:47:00,16.0,14.4,29.08,SSE,149,0.0,0.0,93,0.00,,,0.00,meteohub,2013-01-22 04:47:00,
2013-01-21 23:52:00,15.8,14.2,29.08,SSE,149,0.0,0.0,93,0.00,,,0.00,meteohub,2013-01-22 04:52:00,
2013-01-21 23:57:00,15.4,13.8,29.08,SSE,149,0.0,0.0,93,0.00,,,0.00,meteohub,2013-01-22 04:57:00,